Saturday, August 23, 2014
03:41 UTC
  |  Log In   |  Register Free
Airport Search:

South Alabama Regional At Bill Benton Field Airport
(79J)

South Alabama Regional At Bill Benton Field Airport Diagram
No Airport Diagram Available

FAA data valid effective July 24, 2014 until September 18, 2014 (unless otherwise noted).

 
 
 
 
 
 
 
 
 
 
 
 
 
 

Current Aviation Weather for South Alabama Regional At Bill Benton Field Airport (79J)

The most recent METAR observation for KLOR was updated at: 1853 UTC
METAR Summary (Translated METAR)
KLOR
281853Z AUTO 27010KT 10SM SCT044 BKN055 BKN070 35/22 A2994 RMK AO2 SLP132 T03500222 TSNO $
KOZR
(5.2 nm SE from KLOR)
281758Z AUTO 26009KT 210V280 10SM FEW042 SCT160 SCT210 34/24 A2998 RMK AO2 SLP151 T03370238 10337 20251 58010
TAF Summary (Translated TAF)
KOZR
(5.2 nm SE from KLOR)
2300/2406 30006KT 9999 FEW040 QNH2995INS TEMPO 2318/2322 33010G15KT 9000 -TSRA BKN030CB BECMG 2323/2324 32006KT 9999 SCT050 QNH2999INS TX35/2320Z TN21/2309Z
KDHN
(15.6 nm SE from KLOR)
221720Z 2218/2318 34006KT P6SM SCT050
  Airport Weather Conditions for 79J

Current weather conditions are
not available for 79J


The nearest NOAA weather station
is at CEW, (32.5 nm SW from 79J)
  
 Current Weather at CEW
81° F
Fair
South winds at 3.5 mph
CEW NOAA Radar

Pressure: 30.03 in
Humidity: 85%
Wind: South at 3.5 MPH (3 KT)
Dew Point: 75.9°F
Visibility: 9.00 mi


Airport Weather Forecast for 79J

Translated METAR and TAF for KLOR
Translated METAR for KLOR (0335 UTC 23 August 2014)
found at http://aviationweather.gov/adds/metars/
 
METAR text: KLOR 230253Z AUTO 00000KT 10SM CLR 27/24 A3001 RMK AO2 SLP159 T02670239 53010 TSNO $
Conditions at: KLOR (LOWE AHP/FT. RUC, AL, US) observed 0253 UTC 23 August 2014
Temperature: 26.7°C (80°F)
Dewpoint: 23.9°C (75°F) [RH = 85%]
Pressure (altimeter): 30.01 inches Hg (1016.3 mb)
[Sea-level pressure: 1015.9 mb]
Winds: calm
Visibility: 10 or more miles (16+ km)
Ceiling: at least 12,000 feet AGL
Clouds: sky clear below 12,000 feet AGL
Weather:
SOME DATA ABOVE MAY BE INACCURATE!!!
"$" is an indication the sensor requires maintenance
Translated TAF for KLOR

There is no translated TAF available for this airport

Find All Airport Services Find A Hotel Find A Rental Car Find A Golf Course Find A Restaurant $100 Hamburger



FBO's on the Field
FBO Company Facility Photos Services Transportation Aviation Fuel Prices: Prices include tax
Catering Weather Repair Courtesy Rental Type 100LL JetA JetA+ MOGAS 8087
 
South Alabama Regional Airport

This FBO has not yet been rated
FS:Independent
Last Updated: Aug-04
Login to update fuel prices
SS:
Contact South Alabama Regional AirportMore FBO Information
 
Add another FBO Facility Photos Catering Weather Repair Courtesy Rental Type 100LL JetA JetA+ MOGAS 8087
Services Transportation Aviation Fuel Prices: Prices include tax


GlobalAir.com Airport Resource Center model-print
model-print
model-print
model-print